1998 KD66

Initial reported observation by Cerro Tololo Observatory, La Serena on 1998-05-29.
(Discoverer will be defined when the object is numbered. See this note on how discoverers are determined.)

Orbit

Orbit type: Distant object
One opposition object seen prior.

Note: WebGL enabled browser required.

epoch1998-05-07.0
epoch JD2450940.5
perihelion date1998-05-19.89567
perihelion JD2450953.39567
argument of perihelion (°)357.08715
ascending node (°)200.63711
inclination (°)5.09302
eccentricity0.0507328
perihelion distance (AU)40.8959993
Tisserand w.r.t. Jupiter5.8
ΔV w.r.t. Earth (km/sec)12.5
semimajor axis (AU)43.0816529
mean anomaly (°)359.95505
mean daily motion (°/day)0.00348550
aphelion distance (AU)45.267
period (years)283
P-vector [x]-0.95246194
P-vector [y]-0.27769281
P-vector [z]-0.12531146
Q-vector [x]0.30304675
Q-vector [y]-0.90581232
Q-vector [z]-0.29608565
absolute magnitude8.9
phase slope0.15
orbit noteE
referenceMPC 33346
observations used3
oppositions1
arc length (days)10
first opposition used1998
last opposition used1998
residual rms (arc-secs)0.07
perturbers coarse indicator
perturbers precise indicator0000
first observation date used1998-05-20.0
last observation date used1998-05-30.0
computer nameMarsden
Minimum Orbit Intersection Distances (in AU)
for orbit epoch: 2450940.5, reference: MPC
Mercury40.4741
Venus40.1758
Earth39.8948
Mars39.267
Jupiter35.442
Saturn31.1527
Uranus22.5332
Neptune10.5505

Observations

3 total observations over interval: 1998 05 20.12671 – 1998 05 30.10235
These data are available for download (format description).

Date (UT) J2000 RA J2000 Dec Magn Location Ref
1998 05 20.12671 13 01 27.96 -06 50 20.4 24.9 R 807 – Cerro Tololo Observatory, La Serena MPS 3016
1998 05 29.12752 13 01 02.37 -06 47 27.1 24.7 R 807 – Cerro Tololo Observatory, La Serena MPS 3016
1998 05 30.10235 13 00 59.93 -06 47 10.3 24.5 R 807 – Cerro Tololo Observatory, La Serena MPS 3016